Regional Weather Roundup
Issued by NWS

Home | Current Version | Previous Version | Text Only | Print | Product List | Glossary Off
Versions: 1 2 3 4 5 6 7 8 9 10 11 12 13 14 15 16 17 18 19 20 21 22 23 24 25 26 27 28 29 30 31 32 33 34 35 36 37 38 39 40 41 42 43 44 45 46 47 48 49 50

429
ASUS43 KIND 201909
RWRIN

WEATHER ROUNDUP FOR INDIANA
NATIONAL WEATHER SERVICE INDIANAPOLIS IN
300 PM EDT FRI APR 20 2018

NOTE: "FAIR" INDICATES FEW OR NO CLOUDS BELOW 12,000 FEET WITH NO
SIGNIFICANT WEATHER AND/OR OBSTRUCTIONS TO VISIBILITY.

* - STATION DOES NOT REPORT WEATHER SUCH AS PRECIPITATION OR FOG.

+ - STATION NOT QUALITY CONTROLLED BY THE NATIONAL WEATHER SERVICE.
    USE DATA WITH CAUTION...ESPECIALLY DEWPOINT AND RELATIVE
    HUMIDITY OBSERVATIONS.

INZ001>003-010>013-019-020-202000-
NORTHWEST INDIANA

CITY           SKY/WX    TMP DP  RH WIND       PRES   REMARKS
GARY /AIRPORT/ MOSUNNY   55  14  19 NE9       30.50F
KNOX *+        FAIR      57  21  24 NE6       30.48S
LA PORTE +     FAIR      56  18  22 N9        30.49S
MICHIGAN CITY+ FAIR      54  25  32 NW7       30.50F
MONTICELLO +   FAIR      58  15  18 NE10      30.47F
RENSSELAER +   FAIR      59  -6   7 NE12      30.47F
VALPARAISO     FAIR      60  16  18 NE7       30.48F

$$

LMZ046-743>745-202000-
SOUTHERN LAKE MICHIGAN

STATION/POSITION TIME  TEMP    WIND        PRES    WAVE
                       AIR SEA DIR/SP/G            HT
                 (UTC) (F)     (DEG/KT/KT) (MB)    (FT)
BURNS HARBOR     1840   43      60/  6/  7 1033.2F
MICHIGAN CITY    1840   40      10/  5/  6   N/A

$$

INZ004-005-014>016-021>024-202000-
NORTH CENTRAL INDIANA

CITY           SKY/WX    TMP DP  RH WIND       PRES   REMARKS
GOSHEN         FAIR      56  21  25 CALM      30.47F
LOGANSPORT +   FAIR      55  19  24 N6        30.48F
PERU/GRISSOM   MOSUNNY   57  16  19 NE6       30.46F
ROCHESTER +    FAIR      59  19  21 N9        30.48F
SOUTH BEND     FAIR      57  20  23 MISG      30.49F
WARSAW +       FAIR      55  23  28 N7        30.48S

$$

INZ006>009-017-018-025>027-202000-
NORTHEAST INDIANA

CITY           SKY/WX    TMP DP  RH WIND       PRES   REMARKS
ANGOLA *+      FAIR      55  19  24 VRB7      30.46S
AUBURN +       FAIR      55  23  28 NE8       30.47S
FORT WAYNE     FAIR      58  22  24 N8        30.48S
HUNTINGTON +   FAIR      56  20  25 N9        30.47S

$$

INZ028-029-035-036-043>045-051>053-202000-
WEST CENTRAL INDIANA

CITY           SKY/WX    TMP DP  RH WIND       PRES   REMARKS
CRAWFORDSVL +  FAIR      56  24  28 N8        30.46F
GREENCASTLE +  FAIR      57  18  21 NE8       30.47S
LAFAYETTE      FAIR      57  22  25 NE9       30.47F
TERRE HAUTE    FAIR      61  23  23 E12G20    30.46F

$$

INZ030>032-037>040-046>048-054>057-064-065-202000-
CENTRAL INDIANA

CITY           SKY/WX    TMP DP  RH WIND       PRES   REMARKS
COLUMBUS       SUNNY     59 N/A N/A N6        30.47S
FISHERS *+     FAIR      57  32  38 NE7       30.47F
FRANKFORT +    FAIR      60  22  22 NE10      30.49F
GREENWOOD *+   FAIR      56  25  29 N7        30.47S
INDIANAPOLIS   FAIR      59  21  23 N10G17    30.47S
-EAGLE CREEK   FAIR      58  22  24 NE8       30.46F
KOKOMO +       FAIR      57  22  25 N6        30.48F
MARION +       FAIR      55  24  30 CALM      30.48S
MT COMFORT *+  FAIR      55  30  38 CALM      30.47S
SHELBYVILLE    FAIR      60  23  24 E8        30.46S
ZIONSVILLE +   FAIR      56  24  29 E9        30.48S

$$

INZ033-034-041-042-049-050-058-059-202000-
EAST CENTRAL INDIANA

CITY           SKY/WX    TMP DP  RH WIND       PRES   REMARKS
MUNCIE         FAIR      59  21  23 VRB3      30.47S
RICHMOND +     FAIR      54  23  30 E6        30.46S

$$

INZ060-061-067>069-081>083-085>088-202000-
SOUTHWEST INDIANA

CITY           SKY/WX    TMP DP  RH WIND       PRES   REMARKS
EVANSVILLE     FAIR      61  25  25 MISG      30.44F
HUNTINGBURG +  FAIR      60  26  27 NE10      30.43
WASHINGTON +   FAIR      61  19  19 E8        30.44F

$$

INZ062-063-066-070>080-084-089>092-202000-
SOUTH CENTRAL AND SOUTHEAST INDIANA

CITY           SKY/WX    TMP DP  RH WIND       PRES   REMARKS
BATESVILLE +   SUNNY     57  25  28 MISG      30.44F
BEDFORD +      FAIR      61  16  17 NE5       30.44F
BLOOMINGTON    FAIR      61  22  22 NE12G18   30.44F
FRENCH LICK *+ FAIR      59   5  11 E7        30.43F
MADISON *+     FAIR      59  16  18 NE7       30.46S
NORTH VERNON + FAIR      57  23  26 NE9G20    30.46S
SEYMOUR +      FAIR      61  28  29 NE9       30.45F

$$





USA.gov is the U.S. government's official web portal to all federal, state and local government web resources and services.